SCP
0 0 0 0 0 0 0 0 0 0 0 0 0 0 0 0 0 0 0 0 0 0 0 0 0 0 0 0 0 0 0 0 0 0 0 0 0 0 0 0 0 0 0
0 0 0 0 0 0 0 0 0 0 0 0 0 0 0 0 0 0 0 0 0 0 0 0 0 0 0 0 0 0 0 0 0 0 0 0 0 0 0 0 0 0 0
0 0 0 0 0 0 0 0 0 0 0 0 0 0 0 0 0 0 0 0 0 0 0 0 0 0 0 0 0 0 0 0 0 0 0 0 0 0 0 0 0 0 0
0 0 0 0 0 0 0 0 0 0 0 0 0 0 0 0 0 0 0 0 0 0 0 0 0 0 0 0 0 0 0 0 0 0 0 0 0 0 0 0 0 0 0
0 0 0 0 0 0 0 0 0 0 0 0 0 0 0 0 0 0 0 0 0 0 0 0 0 0 0 0 0 0 0 0 0 0 0 0 0 0 0 0 0 0 0
0 0 0 0 0 0 0 0 0 0 0 0 0 0 0 0 0 0 0 0 0 0 0 0 0 0 0 0 0 0 0 0 0 0 0 0 0 0 0 0 0 0 0
0 0 0 0 0 0 0 0 0 0 0 0 0 0 0 0 0 -0 -0 -0 -0 0 0 0 0 0 0 0 0 0 0 0 0 0 0 0 0 0 0 0 0 0 0
0 0 0 0 0 0 0 0 0 0 0 0 0 0 0 0 0 -0 -0 -0 -0 -0 0 0 0 0 0 0 0 0 0 0 0 0 0 0 0 0 0 0 0 0 0
0 0 0 0 0 0 0 0 0 0 0 0 0 0 0 0 0 0 0 0 0 0 0 0 0 0 0 0 0 0 0 0 0 0 0 0 0 0 0 0 0 0 0
0 0 0 0 0 0 0 0 0 0 0 0 0 0 0 0 0 0 0 0 0 0 0 0 0 0 0 0 0 0 0 0 0 0 0 0 0 0 0 0 0 0 0
0 0 0 0 0 0 0 0 0 0 0 0 0 0 0 -0 0 0 0 0 0 0 0 0 0 0 0 0 0 0 0 0 0 0 0 0 0 0 0 0 0 0 0
0 0 0 0 0 0 0 0 0 0 0 0 0 0 -0 -0 -0 -0 -0 -0 -0 -0 0 0 0 0 0 -0 -0 -0 0 0 0 0 0 0 0 0 0 0 0 0 0
0 0 0 0 0 0 0 0 0 0 0 0 0 -0 -0 -0 -0 -0 -0 -0 -0 -0 -0 -0 -0 -0 -0 0 0 0 0 0 0 0 0 0 0 0 0 0 0 0 0
0 0 0 0 0 0 0 0 0 -0 -0 -0 -0 -0 -0 -0 -0 -0 -0 -0 -0 -0 -0 -0 -0 -0 0 0 0 0 0 0 0 0 0 0 0 0 0 0 0 0 0
0 0 0 0 0 0 0 0 0 -0 -0 -0 -0 -0 -0 -0 -0 -0 -0 -0 -0 -0 -0 -0 0 0 0 0 0 0 0 0 0 0 0 0 0 0 0 0 0 0 0
0 0 0 0 0 0 0 0 0 -0 -0 -0 0 0 0 -0 -0 -0 -0 -0 -0 -0 0 0 0 0 0 0 0 0 0 0 0 0 0 0 0 0 0 0 0 0 0
0 0 0 0 0 0 0 0 0 -0 -0 0 0 0 0 0 0 0 0 0 0 0 0 0 0 0 0 0 0 0 0 0 0 0 0 0 0 0 0 0 0 0 0
0 0 0 0 0 0 0 0 0 0 0 0 0 0 0 0 0 0 0 0 0 0 0 0 0 0 0 0 0 0 0 0 0 0 0 0 0 0 0 0 0 0 0
0 0 0 0 0 0 0 0 0 0 0 0 0 0 -0 -0 -0 -0 0 0 0 0 0 0 0 0 0 0 0 0 0 0 0 0 0 0 0 0 0 0 0 0 0
0 0 0 0 0 0 0 0 0 0 0 0 0 0 0 0 -0 -0 0 0 0 0 0 0 0 0 0 0 0 0 0 0 0 0 0 0 0 0 0 0 0 0 0
0 0 0 0 0 0 0 0 0 0 0 0 0 0 0 0 0 0 0 0 0 0 0 0 0 0 0 0 0 0 0 0 0 0 0 0 0 0 0 0 0 0 0
0 0 0 0 0 0 0 0 0 0 0 0 0 0 0 0 0 0 0 0 0 0 0 0 0 0 0 0 0 0 0 0 0 0 0 0 0 0 0 0 0 0 0
0 0 0 0 0 0 0 0 0 0 0 0 0 0 0 0 0 0 0 0 0 0 0 0 0 0 0 0 0 0 0 0 0 0 0 0 0 0 0 0 0 0 0
0 0 0 0 0 0 0 0 0 0 0 0 0 0 0 0 0 0 0 0 0 0 0 0 0 0 0 0 0 0 0 0 0 0 0 0 0 0 0 0 0 0 0
0 0 0 0 0 0 0 0 0 0 0 0 0 0 0 0 0 0 0 0 0 0 0 0 0 0 0 0 0 0 0 0 0 0 0 0 0 0 0 0 0 0 0
0 0 0 0 0 0 0 0 0 0 0 0 0 0 0 0 0 0 0 0 0 0 0 0 0 0 0 0 0 0 0 0 0 0 0 0 0 0 0 0 0 0 0
Wind_Speed
3 3 7 8 8 8 8 8 8 9 8 8 8 7 7 7 6 6 6 5 4 4 5 5 6 6 7 7 8 8 8 8 9 9 9 10 10 11 11 11 10 8 12
5 5 8 8 8 8 8 8 8 8 8 8 7 7 6 6 5 5 5 4 4 4 5 5 6 6 6 6 7 7 8 8 8 8 9 9 10 11 12 12 11 7 12
7 5 7 8 9 8 8 8 8 8 8 7 7 7 6 5 5 4 4 4 4 5 5 5 6 5 5 5 6 7 7 7 7 8 7 5 7 11 11 12 12 12 12
7 5 6 9 9 8 8 8 7 8 7 7 7 6 6 5 4 4 4 4 4 4 5 5 6 5 5 5 6 6 7 7 7 7 4 4 5 10 11 11 12 12 12
6 4 5 10 9 8 8 7 7 7 7 6 6 5 5 4 4 3 3 3 4 4 5 5 5 5 5 5 6 6 6 7 7 5 4 4 4 9 10 11 11 11 12
5 4 5 9 9 8 7 7 6 6 6 5 5 5 4 4 4 3 3 3 3 4 4 5 5 5 5 5 6 5 5 6 5 4 4 4 4 8 10 11 11 11 11
5 3 4 8 8 7 7 6 5 5 5 4 4 4 3 3 3 3 3 3 3 3 3 4 4 4 4 5 5 5 6 6 4 4 4 4 5 9 10 10 11 11 11
6 4 3 6 7 7 6 5 5 4 4 4 3 3 3 3 3 3 3 3 2 2 3 4 3 4 4 4 4 5 5 4 4 4 4 4 6 9 9 10 11 11 11
4 4 2 2 3 5 5 5 4 3 3 3 3 2 2 2 2 2 2 2 2 2 2 3 3 3 3 3 3 3 4 4 3 3 4 3 6 9 9 10 10 10 10
4 3 2 2 2 2 2 4 4 3 2 2 2 2 2 2 2 2 2 2 1 1 1 2 2 2 2 3 2 3 4 4 3 3 2 4 8 9 9 10 10 10 10
3 2 1 2 2 2 1 2 2 2 1 1 1 2 3 2 2 2 2 2 1 1 0 1 1 1 2 3 3 3 3 2 3 2 2 6 8 9 10 10 10 10 10
5 3 2 2 2 1 1 1 1 1 1 1 1 2 2 1 1 2 3 3 2 1 0 1 1 1 2 2 2 3 1 2 2 2 2 6 9 10 10 10 10 10 10
6 5 4 3 2 2 1 1 1 1 1 1 1 1 1 1 2 2 2 2 2 2 1 1 1 1 1 1 1 1 1 1 1 1 2 5 8 10 10 10 10 10 10
5 5 4 3 2 2 1 1 1 0 0 0 1 1 1 1 1 1 1 2 1 1 1 1 1 1 1 2 2 2 2 1 1 1 1 5 7 9 10 10 10 10 10
5 5 4 4 4 3 2 1 1 1 1 0 0 0 0 0 1 1 1 1 2 1 0 0 1 1 1 2 2 3 2 2 2 1 1 5 7 8 9 10 10 9 9
6 5 4 4 4 3 2 2 1 1 1 0 0 0 0 0 1 1 1 1 1 1 1 0 1 2 2 2 2 2 2 2 2 2 1 2 6 8 8 8 9 8 8
6 5 4 4 4 4 3 2 1 1 1 0 0 0 0 0 1 1 0 0 1 1 1 1 2 2 3 3 2 2 2 2 2 2 2 2 3 5 7 7 7 7 7
4 4 4 4 4 3 2 2 1 1 1 0 0 1 1 1 0 0 1 0 0 0 1 2 2 3 3 3 2 2 2 2 2 2 2 2 2 2 4 6 6 6 6
5 5 4 4 4 4 3 2 1 1 1 0 0 0 1 1 1 1 1 1 1 1 2 2 2 2 3 3 3 3 2 2 2 2 3 2 2 2 2 4 5 5 5
4 4 4 4 3 3 2 2 1 1 1 0 0 0 1 1 1 1 1 1 2 2 2 2 3 3 2 3 3 4 3 2 2 2 2 2 2 2 2 2 2 2 3
3 3 4 4 3 3 2 2 1 1 0 1 1 1 1 1 1 1 1 2 2 2 2 3 3 3 2 2 3 3 3 3 3 2 1 2 2 2 2 2 1 1 1
3 4 4 4 4 4 3 2 1 1 0 0 1 1 2 2 2 1 1 1 1 2 2 2 3 2 1 2 2 2 2 2 2 2 2 1 1 1 2 2 2 1 1
3 4 4 4 4 3 3 2 2 2 2 2 2 2 2 2 2 2 2 1 1 1 1 1 2 3 2 1 1 2 2 1 0 2 2 1 1 1 1 1 1 1 2
4 3 3 3 3 2 3 3 4 3 2 1 0 1 2 2 2 2 2 2 1 1 1 1 2 2 2 1 1 1 1 2 2 1 1 1 1 1 1 1 1 1 2
3 3 3 3 3 3 3 3 3 2 1 1 1 1 2 2 2 2 1 1 1 1 1 1 1 2 1 2 2 1 2 2 2 2 1 0 1 0 0 1 1 1 2
3 3 3 4 3 3 3 3 3 3 2 2 1 1 1 1 1 2 1 1 1 1 1 1 1 2 1 2 2 1 2 2 2 2 2 1 0 1 1 1 2 2 2
Wind_Direction
171 167 160 149 139 130 124 118 114 109 106 104 103 100 99 98 98 102 102 102 98 102 108 116 124 129 128 132 136 136 136 134 139 141 140 144 145 147 145 140 136 134 136
150 155 157 148 142 135 130 126 119 114 111 109 106 102 97 95 94 97 96 93 86 90 109 114 120 126 128 132 137 138 140 135 137 141 141 144 142 145 144 140 138 135 137
136 145 152 147 143 139 135 130 124 118 116 112 108 105 99 94 90 90 91 89 81 84 107 116 121 123 129 133 133 137 141 138 139 140 137 129 136 144 144 141 139 137 136
138 142 150 148 144 142 137 133 128 124 120 114 110 107 102 98 93 92 90 87 81 82 101 108 115 115 118 124 130 134 133 132 131 135 124 128 140 147 145 142 141 140 137
131 137 157 149 145 140 138 135 131 125 121 118 112 105 98 93 91 91 88 87 84 88 97 101 109 114 114 117 129 127 129 135 134 125 117 125 138 146 145 145 142 139 136
129 135 158 149 144 139 135 133 131 126 121 117 110 103 95 86 83 86 83 82 80 85 95 93 98 107 115 118 124 126 126 126 120 111 117 127 140 148 148 147 144 140 138
135 137 153 150 148 145 140 135 131 127 122 115 107 101 90 84 77 72 67 63 62 70 87 92 98 105 114 122 125 126 125 123 116 119 129 138 145 150 151 149 143 141 141
140 136 137 155 151 149 145 138 131 125 117 111 105 97 83 75 73 63 54 54 51 54 66 76 84 95 103 112 123 133 136 137 130 132 133 142 150 150 150 150 145 144 142
127 126 121 129 142 148 144 136 131 123 116 108 99 88 77 65 57 54 52 53 53 60 65 72 70 94 97 106 118 135 134 137 129 135 144 147 153 153 151 151 149 146 144
117 123 128 125 117 111 131 146 137 122 111 97 88 72 57 38 25 27 34 47 48 37 59 85 87 84 80 80 107 124 127 118 118 132 146 147 150 155 154 150 147 144 143
143 142 143 138 136 132 145 163 149 133 98 68 47 29 33 17 3 357 1 16 7 360 39 120 120 90 70 68 87 95 98 96 117 131 145 150 154 154 153 150 148 146 144
175 183 185 170 155 140 155 104 71 66 42 31 18 12 19 15 357 5 349 355 4 2 33 130 115 74 45 48 75 84 76 91 102 123 150 156 158 154 152 150 153 149 149
177 177 186 173 159 151 127 107 77 42 39 29 18 28 28 12 359 4 351 348 357 8 10 23 42 49 68 70 70 83 96 100 98 109 150 154 156 152 150 150 151 150 150
169 181 176 165 158 160 137 129 131 106 51 18 356 23 37 11 354 347 348 346 354 353 24 34 86 89 88 98 110 114 108 103 100 83 120 137 146 147 146 147 146 146 146
177 185 180 171 169 167 153 173 155 155 161 206 287 26 81 332 315 325 336 352 346 344 16 78 117 114 99 93 97 102 107 97 99 87 88 126 137 143 145 148 145 147 148
189 189 183 175 175 165 165 168 164 166 171 125 353 306 209 232 276 296 325 352 341 333 346 43 143 134 119 100 87 91 101 109 98 96 83 121 132 138 141 146 147 146 146
192 184 181 181 167 167 173 175 153 152 134 135 307 296 266 253 242 232 188 112 312 337 22 47 70 97 111 101 87 82 90 98 109 102 96 96 131 141 140 142 144 144 148
183 181 182 180 168 171 170 165 137 125 118 126 314 327 302 292 194 188 156 153 217 86 76 73 65 82 88 93 90 84 83 88 102 102 99 102 108 127 137 137 139 141 151
186 179 178 177 169 171 163 139 124 116 128 160 27 337 317 347 53 95 103 106 100 86 74 86 74 84 95 91 87 80 79 83 93 107 111 112 112 112 123 136 140 144 151
187 177 175 172 159 148 138 114 95 87 70 45 20 330 358 32 55 89 85 80 86 91 80 78 86 76 87 94 87 72 63 71 71 83 109 109 113 122 121 128 133 134 140
172 168 170 164 159 149 147 154 154 189 290 20 7 5 50 63 68 86 77 74 82 98 108 109 95 85 69 76 85 70 50 58 63 59 80 101 113 122 123 134 139 141 156
175 169 172 177 168 169 167 157 149 132 107 50 4 27 38 59 65 77 78 91 97 104 103 102 100 93 64 62 97 96 61 34 32 43 63 100 112 114 129 145 155 159 168
179 179 173 178 174 166 147 118 93 71 51 38 13 13 15 44 66 72 65 83 96 109 131 134 130 129 130 57 63 121 133 170 46 20 40 68 92 106 132 144 169 180 179
183 166 154 152 142 137 133 133 136 139 149 209 250 358 18 36 45 67 78 80 86 104 130 169 149 143 140 136 64 48 105 136 138 107 10 16 62 119 164 183 191 193 186
147 136 135 125 118 115 123 136 134 125 140 106 75 56 36 32 35 42 63 79 90 115 158 148 129 129 140 148 145 129 101 79 94 132 157 346 12 338 232 225 217 213 202
120 120 117 116 114 115 120 131 136 144 142 125 115 92 32 23 19 22 51 59 73 78 105 148 139 138 142 138 143 148 148 141 153 143 160 175 252 315 310 250 226 227 215